Temperature
18 18 18 18 18 18 18 18 18 18 18 18 18 18 18 18 18 18 18 18 18 18 18 18 18 18 18 18 18 18 17 17 17 17 17 17 17 17 17 17 17 16 16
18 18 18 18 18 18 18 18 18 18 18 18 18 18 18 18 18 18 18 18 18 18 18 18 18 18 18 18 18 18 18 17 17 17 17 17 17 17 17 17 17 17 16
18 18 18 18 18 18 18 18 18 18 18 18 18 18 18 18 18 18 18 18 18 18 18 18 18 18 18 18 18 18 18 18 17 17 17 17 17 17 17 17 17 17 17
18 18 18 18 18 18 18 18 18 18 18 18 18 18 18 18 18 18 18 18 18 18 18 18 18 18 18 18 18 18 18 18 18 17 17 17 17 17 17 17 17 17 17
18 18 18 18 18 18 18 18 18 18 18 18 19 19 19 19 19 19 19 18 18 18 18 18 18 18 18 18 18 18 18 18 18 17 17 17 17 17 17 17 17 17 17
19 18 18 18 18 18 18 18 18 18 18 19 19 19 19 19 19 19 19 19 19 19 18 18 18 18 18 18 18 18 18 18 17 17 17 17 17 17 17 17 17 17 17
19 19 19 19 18 18 18 18 18 18 18 19 19 19 19 19 19 19 19 19 19 19 19 18 18 18 18 18 18 18 18 18 18 17 17 17 17 17 17 17 17 17 17
19 19 19 19 19 19 19 19 19 18 19 19 19 19 19 19 19 19 19 19 19 19 19 19 18 18 18 18 18 18 18 18 18 17 17 17 17 17 17 17 17 17 17
19 19 19 19 19 19 19 19 19 19 19 19 19 19 19 19 19 20 20 19 19 19 19 19 18 18 18 18 18 18 18 18 17 17 17 17 17 17 17 17 17 17 17
19 19 19 19 19 19 19 19 19 19 19 19 19 19 19 19 19 19 19 19 19 19 19 19 18 18 18 18 18 18 18 18 18 17 17 17 17 17 17 17 17 17 16
19 19 19 19 19 19 19 19 19 19 19 19 19 19 19 19 19 19 19 19 19 19 19 19 18 18 18 18 18 18 18 18 17 17 17 17 17 17 17 17 17 17 16
19 19 19 19 19 19 19 19 18 19 19 19 19 19 19 19 19 19 19 19 19 19 19 19 18 18 18 18 18 17 17 17 17 17 17 17 17 17 17 17 16 16 16
19 19 19 19 19 19 19 18 18 19 18 18 19 19 19 19 19 19 19 19 19 19 18 18 18 18 18 18 17 17 17 17 17 17 17 17 17 17 16 16 16 16 16
20 20 19 19 19 19 18 18 18 18 18 18 18 18 18 18 19 19 19 19 18 18 18 18 18 18 18 17 17 17 17 17 17 16 16 16 16 16 16 16 16 16 16
20 20 19 19 19 19 18 18 18 18 18 18 18 18 18 18 18 18 18 18 18 18 18 18 18 18 17 17 17 17 17 16 16 16 16 16 16 16 16 16 16 16 16
19 19 19 19 19 18 18 18 18 18 18 18 18 18 18 18 18 18 18 18 18 18 18 18 18 18 17 17 17 16 16 16 16 16 16 16 16 16 15 15 15 15 15
19 19 19 19 18 18 18 18 18 18 18 18 18 18 18 18 18 18 18 18 18 18 18 18 17 17 17 17 17 16 16 16 16 16 16 15 15 15 15 15 15 15 15
19 19 19 18 18 18 18 18 18 18 18 18 18 18 18 18 18 18 18 18 18 18 17 17 17 17 17 17 16 16 16 16 16 15 15 15 15 15 15 15 15 15 15
19 19 18 18 18 18 18 18 18 18 18 17 17 17 17 17 17 18 17 17 17 17 17 17 17 17 17 16 16 16 15 15 15 15 15 15 15 15 14 14 14 14 14
19 18 18 18 18 18 18 18 17 17 17 17 17 17 17 17 17 17 17 17 17 17 17 17 17 16 16 16 16 16 15 15 15 15 15 15 14 14 14 14 14 14 14
18 18 18 18 18 18 17 18 18 17 17 17 17 17 17 17 17 17 17 17 17 17 16 16 16 16 16 16 16 16 15 15 15 14 14 14 14 14 14 14 14 14 14
18 18 18 17 17 17 17 18 18 17 17 17 17 17 17 17 17 17 17 17 17 16 16 16 16 16 16 16 16 15 15 15 14 14 14 14 14 14 14 14 14 13 13
17 17 17 17 17 17 17 17 17 17 17 17 17 17 17 17 17 17 17 16 17 17 16 16 16 16 16 16 16 15 15 15 15 15 14 14 14 14 14 14 13 13 13
17 17 17 17 17 17 17 17 17 17 17 17 17 17 17 17 17 17 16 16 16 16 16 16 16 16 16 16 15 15 15 15 14 14 14 14 14 13 13 13 13 13 13
17 17 17 17 17 17 17 17 17 17 16 16 16 16 16 16 16 16 16 16 16 16 16 16 16 16 16 15 15 15 15 14 14 14 14 14 14 13 13 13 13 13 12
17 17 17 17 17 17 17 17 17 17 16 16 16 16 16 16 16 16 16 15 15 16 15 15 15 15 15 15 15 15 15 14 14 14 14 13 13 13 13 13 13 13 12
Wind_Speed
2 2 2 3 4 5 4 3 3 3 3 4 4 4 3 3 3 5 9 14 15 14 14 13 13 13 13 13 13 12 12 12 12 12 11 11 10 10 10 10 10 10 10
3 2 2 2 2 3 4 4 3 3 3 3 3 3 4 5 4 5 8 11 14 15 16 15 14 14 14 14 14 14 14 14 13 13 12 12 12 12 11 11 11 12 11
4 3 3 3 3 3 4 4 4 3 4 4 4 4 4 4 4 5 7 9 11 15 16 16 16 16 15 15 15 15 15 14 14 14 14 14 14 13 13 13 13 13 13
6 4 3 3 3 4 3 3 3 3 3 3 3 4 4 3 4 5 6 8 10 11 15 17 18 18 17 17 16 16 16 16 16 16 16 16 16 15 15 15 14 14 14
7 5 3 3 4 3 3 3 3 3 3 3 4 5 5 4 4 6 6 6 8 10 11 15 20 19 19 18 17 17 17 16 17 17 17 17 17 17 17 16 16 16 16
6 5 3 4 4 3 3 2 3 3 3 4 5 4 4 5 4 4 4 4 6 8 10 12 14 16 19 18 17 16 16 16 16 16 17 17 17 18 18 18 18 18 17
5 4 3 3 4 4 4 3 3 3 3 3 3 3 4 5 4 4 3 3 4 4 6 8 10 10 11 16 15 14 14 14 14 14 15 16 17 17 17 18 18 19 19
5 5 4 3 3 3 3 3 3 3 3 3 2 2 2 2 2 4 4 4 4 3 3 5 7 6 6 7 9 12 12 12 13 13 13 13 14 14 15 15 16 17 18
6 4 4 4 3 3 3 4 4 4 3 3 2 2 1 2 2 2 2 2 3 2 3 3 5 6 7 7 7 10 11 11 11 12 11 10 11 11 12 12 12 13 14
5 5 4 4 3 3 3 4 4 3 4 3 2 2 2 1 1 2 2 1 3 3 2 2 2 4 6 6 5 6 9 9 8 8 8 8 8 8 9 10 10 11 12
6 5 5 4 4 3 3 3 2 3 3 4 3 2 2 2 4 3 3 2 1 2 2 3 2 3 5 6 6 6 8 8 7 6 5 5 5 6 6 7 7 8 8
5 6 5 4 4 4 4 3 3 4 4 4 3 3 2 2 3 3 3 2 2 2 2 2 3 3 5 6 6 7 8 8 7 5 4 3 3 3 3 4 4 5 5
5 6 6 5 5 4 4 4 4 4 4 4 4 4 3 4 3 2 2 2 2 2 1 1 2 2 4 7 7 8 7 8 7 6 5 4 3 3 2 2 1 2 2
4 5 6 6 6 5 5 4 4 4 4 4 6 5 4 4 3 2 2 2 2 2 2 2 2 3 3 7 8 9 7 8 8 7 6 5 5 4 3 2 2 1 1
5 5 5 6 5 5 5 4 4 5 4 4 5 4 4 4 4 3 2 2 2 3 3 2 2 3 4 6 9 8 7 8 8 7 7 7 5 4 3 3 2 1 1
4 4 4 5 5 6 6 5 4 4 4 5 4 4 4 4 3 3 3 3 3 3 2 2 2 3 4 5 9 8 8 9 9 9 8 7 6 5 4 3 2 2 1
5 4 5 5 5 5 5 5 5 5 5 4 4 4 4 4 3 3 3 3 3 2 3 2 1 2 3 3 5 7 8 8 8 10 10 9 8 6 5 4 3 3 2
5 5 5 5 5 5 5 5 5 5 5 5 5 4 5 5 5 4 3 3 3 3 3 3 2 2 3 4 4 5 7 8 8 11 12 11 10 8 7 6 5 4 3
5 4 4 5 5 5 5 4 5 5 5 5 4 4 5 5 5 4 4 4 3 3 3 3 4 3 3 4 4 5 5 4 8 10 11 11 11 9 8 8 6 5 4
5 5 4 5 4 4 4 4 5 5 5 5 4 5 5 5 5 4 4 4 4 3 3 4 4 3 3 4 4 4 4 4 4 7 8 9 10 10 9 9 8 7 7
6 5 5 5 5 5 5 4 4 6 5 5 4 4 5 4 5 4 4 3 3 3 4 4 4 3 3 3 3 3 4 3 3 3 4 6 7 6 7 9 9 9 8
5 5 5 5 6 6 4 4 4 5 4 5 5 4 4 4 5 6 4 3 3 4 4 4 4 4 4 3 3 4 3 3 3 3 4 5 6 5 6 8 11 12 11
5 5 5 5 5 5 5 4 5 4 5 5 5 4 5 5 3 3 4 4 3 4 5 5 5 4 4 4 4 4 4 4 4 3 3 4 4 4 5 9 14 15 13
4 4 5 5 5 5 6 5 5 5 6 5 5 5 5 4 4 3 4 4 4 4 6 5 4 4 3 3 4 5 5 4 3 3 3 3 3 3 3 7 12 15 14
4 4 4 4 4 4 6 6 5 5 5 6 6 5 6 5 4 5 4 4 4 4 5 5 4 5 5 5 4 3 4 4 4 4 3 3 2 2 3 3 9 14 14
4 4 3 3 4 4 6 7 6 5 5 4 3 4 5 5 5 5 5 5 5 5 4 4 4 5 5 5 7 6 5 4 3 3 3 3 3 2 2 3 5 9 10
Wind_Direction
164 159 169 181 192 190 183 196 202 203 214 225 232 230 244 255 218 168 167 179 184 190 196 200 205 209 212 211 210 212 213 213 212 215 217 220 221 224 226 227 227 226 226
150 156 169 205 207 203 189 196 208 210 227 233 240 237 241 241 233 186 177 188 196 199 203 206 211 213 214 215 216 216 217 217 217 216 218 221 224 228 230 230 230 229 230
161 185 200 215 201 210 198 200 210 208 223 222 232 240 239 233 226 215 198 192 201 208 209 211 212 213 215 218 221 221 222 222 220 219 220 222 225 229 230 232 232 231 231
179 197 210 211 195 204 203 206 209 213 236 234 227 239 235 222 228 226 220 206 201 207 211 215 214 213 216 220 223 224 225 225 224 223 223 225 226 229 230 233 234 235 234
190 205 208 197 207 216 223 227 181 212 230 238 236 229 231 223 223 234 228 223 213 204 204 212 213 215 219 223 225 226 228 229 228 227 227 229 230 231 232 234 236 237 238
197 213 203 197 206 221 230 225 219 224 238 242 258 245 231 227 215 228 231 227 225 215 208 205 205 214 221 225 227 228 229 230 230 230 231 232 233 233 233 234 236 238 239
197 206 244 195 206 213 222 221 233 238 246 243 262 280 258 239 213 213 213 221 217 217 201 184 189 202 210 217 223 228 229 231 232 232 233 234 236 237 236 237 238 239 240
197 206 216 226 217 211 220 223 222 254 261 238 232 274 280 284 263 228 201 207 209 200 197 193 183 188 193 188 205 220 226 230 232 234 236 237 237 238 238 240 240 240 242
195 211 195 219 226 218 213 224 222 229 250 262 237 225 237 252 274 264 223 196 189 190 203 183 183 180 188 187 192 207 216 224 231 234 234 236 237 238 238 238 239 241 242
197 201 204 210 223 234 212 223 213 235 242 260 257 235 228 239 254 294 301 235 199 199 202 216 192 167 178 177 179 174 193 207 220 226 231 233 230 229 232 236 239 242 247
199 205 201 200 211 234 233 227 213 233 245 250 260 249 240 238 234 228 252 249 244 215 193 192 198 175 172 165 150 159 171 183 195 206 216 228 229 228 228 232 238 243 248
198 207 203 194 207 229 237 232 228 230 242 257 269 265 238 233 237 234 237 232 226 239 210 186 189 167 157 144 150 157 164 167 171 178 187 198 204 207 211 220 233 241 246
199 201 204 192 210 219 226 230 227 238 235 241 248 258 260 254 253 243 237 247 231 239 220 210 180 144 153 131 135 145 156 160 162 163 163 162 162 168 175 184 203 233 255
209 186 188 192 208 220 228 220 231 234 234 236 246 247 259 265 261 241 233 242 254 245 230 224 190 161 138 133 145 153 148 158 159 157 155 152 150 151 150 148 150 163 241
218 192 193 200 207 217 228 225 230 233 230 233 245 246 248 259 260 251 242 228 238 255 249 220 193 157 140 136 146 150 149 157 161 162 163 163 159 157 153 154 160 156 152
219 194 197 204 212 219 223 228 240 233 228 233 235 241 245 252 264 257 240 231 232 237 254 243 214 169 168 164 164 158 155 159 164 166 169 168 165 164 163 165 165 164 165
216 207 206 210 217 220 222 224 235 233 230 237 241 234 235 248 254 263 257 244 239 223 236 249 246 180 166 156 160 158 160 163 168 177 175 173 172 173 174 173 170 170 167
212 206 207 215 222 222 224 224 238 240 235 236 236 237 237 237 236 255 258 246 240 223 218 237 236 208 195 180 173 189 182 182 173 185 183 181 179 177 180 182 178 175 166
205 206 203 213 222 226 225 226 237 245 242 243 243 242 241 238 233 233 242 246 241 238 214 221 236 219 206 198 191 211 203 188 184 181 184 185 182 183 188 188 189 183 176
202 201 208 214 219 227 226 230 239 243 244 246 246 244 244 239 234 236 240 245 250 253 235 223 231 223 213 204 200 207 213 206 202 186 176 180 184 189 194 195 195 192 186
206 199 205 215 219 224 224 223 240 242 244 247 249 247 245 233 225 228 237 232 238 245 247 235 230 229 220 206 214 220 218 211 203 187 174 179 178 186 194 202 202 199 193
208 202 206 215 221 227 207 207 221 248 246 243 248 251 252 231 224 214 219 221 224 237 250 248 237 224 219 218 221 231 225 218 218 190 188 199 182 193 191 192 196 194 194
208 213 215 214 220 217 209 204 214 240 246 242 240 241 253 250 224 219 220 224 241 248 247 249 255 246 225 216 218 228 227 228 230 195 190 213 192 199 191 191 187 189 192
217 220 225 219 224 220 207 210 219 235 246 244 237 231 235 251 246 220 230 228 233 245 247 240 249 254 238 219 213 221 230 231 225 203 177 210 203 203 185 172 182 187 190
222 227 229 227 236 226 201 204 211 246 245 243 238 233 224 224 213 209 220 227 239 245 244 230 235 245 244 231 217 221 227 220 223 213 194 196 201 185 171 176 189 193 193
222 232 238 239 243 237 208 201 203 242 250 246 239 232 221 210 205 204 219 225 233 243 251 243 239 249 242 226 215 212 217 224 227 213 189 185 196 181 192 186 177 189 198
Height
1544 1545 1546 1547 1548 1549 1549 1550 1550 1551 1552 1553 1554 1555 1555 1556 1557 1557 1557 1557 1558 1558 1559 1559 1560 1561 1561 1562 1563 1564 1565 1566 1567 1568 1569 1570 1570 1572 1573 1573 1574 1575 1576
1544 1545 1546 1546 1547 1548 1548 1549 1550 1550 1551 1552 1553 1554 1554 1555 1556 1556 1556 1556 1556 1557 1557 1558 1558 1559 1560 1561 1561 1562 1563 1564 1565 1566 1567 1567 1568 1569 1570 1571 1572 1573 1574
1543 1544 1545 1546 1547 1547 1548 1548 1549 1550 1551 1551 1552 1553 1553 1554 1554 1555 1555 1555 1555 1555 1555 1556 1556 1557 1558 1558 1559 1560 1561 1562 1562 1563 1564 1565 1566 1567 1568 1569 1569 1570 1571
1543 1543 1544 1545 1546 1546 1547 1548 1548 1549 1550 1550 1551 1551 1552 1553 1553 1553 1554 1553 1553 1554 1554 1554 1554 1555 1556 1556 1557 1558 1558 1559 1560 1561 1561 1562 1563 1564 1565 1566 1567 1568 1568
1542 1542 1543 1544 1545 1545 1546 1547 1547 1548 1548 1549 1550 1550 1550 1551 1551 1551 1552 1552 1552 1552 1552 1552 1552 1553 1553 1554 1555 1555 1556 1557 1557 1558 1559 1560 1560 1561 1562 1563 1564 1564 1565
1541 1541 1542 1543 1543 1544 1545 1545 1546 1547 1547 1547 1548 1549 1549 1549 1549 1549 1550 1550 1550 1550 1550 1550 1550 1551 1551 1552 1552 1553 1553 1554 1555 1556 1556 1557 1557 1558 1559 1559 1560 1561 1562
1539 1540 1540 1541 1542 1542 1543 1544 1545 1545 1546 1546 1547 1547 1547 1547 1547 1547 1548 1548 1548 1548 1549 1549 1548 1549 1549 1549 1550 1550 1551 1551 1552 1552 1553 1553 1554 1555 1555 1556 1557 1557 1558
1538 1538 1538 1539 1540 1541 1542 1542 1543 1544 1544 1545 1546 1546 1545 1546 1545 1546 1546 1546 1547 1547 1547 1547 1547 1547 1547 1547 1547 1548 1548 1549 1549 1549 1550 1550 1551 1551 1552 1552 1553 1553 1554
1536 1536 1537 1538 1539 1540 1540 1541 1541 1542 1543 1544 1544 1545 1544 1544 1544 1544 1544 1545 1545 1545 1545 1545 1545 1545 1545 1545 1545 1545 1545 1545 1546 1546 1546 1547 1547 1548 1548 1548 1549 1549 1550
1534 1534 1535 1536 1537 1538 1538 1539 1540 1540 1541 1541 1542 1543 1543 1543 1543 1542 1543 1543 1543 1543 1543 1543 1543 1543 1543 1543 1543 1542 1543 1542 1543 1543 1543 1543 1544 1544 1544 1544 1545 1545 1545
1532 1533 1533 1534 1535 1535 1536 1537 1538 1538 1539 1539 1540 1540 1540 1541 1541 1541 1540 1541 1541 1541 1541 1541 1540 1541 1541 1540 1540 1540 1540 1540 1540 1540 1540 1540 1540 1540 1541 1541 1541 1541 1541
1529 1530 1531 1531 1532 1533 1534 1535 1535 1536 1536 1537 1537 1538 1538 1539 1539 1539 1538 1538 1538 1539 1539 1539 1539 1538 1538 1538 1537 1537 1537 1537 1537 1537 1537 1537 1537 1537 1537 1537 1537 1537 1537
1526 1527 1528 1528 1529 1530 1531 1532 1533 1533 1533 1534 1534 1535 1535 1536 1536 1536 1536 1536 1536 1537 1537 1536 1536 1536 1536 1535 1535 1535 1535 1535 1535 1535 1535 1534 1534 1534 1534 1534 1534 1534 1534
1523 1524 1525 1525 1526 1528 1528 1529 1530 1530 1531 1531 1531 1532 1532 1533 1534 1534 1534 1534 1534 1534 1534 1534 1534 1534 1533 1533 1533 1533 1532 1532 1532 1532 1532 1532 1532 1531 1531 1531 1531 1531 1530
1520 1521 1522 1522 1523 1524 1525 1526 1526 1527 1527 1528 1528 1529 1529 1529 1530 1531 1531 1532 1533 1532 1532 1532 1532 1531 1531 1531 1531 1530 1530 1530 1530 1529 1530 1530 1529 1529 1529 1529 1528 1528 1527
1516 1517 1518 1519 1520 1521 1522 1523 1523 1524 1524 1524 1525 1525 1526 1526 1527 1527 1528 1529 1529 1529 1529 1529 1529 1529 1529 1528 1528 1528 1528 1528 1528 1528 1528 1528 1527 1527 1527 1526 1526 1525 1525
1512 1513 1514 1516 1517 1518 1519 1519 1520 1521 1521 1521 1522 1522 1522 1523 1523 1524 1525 1525 1526 1526 1526 1526 1526 1526 1526 1526 1526 1526 1526 1526 1526 1526 1526 1525 1525 1525 1524 1524 1523 1523 1522
1507 1508 1510 1512 1513 1514 1515 1516 1516 1517 1517 1518 1518 1518 1519 1519 1520 1520 1521 1522 1522 1523 1523 1523 1523 1524 1524 1524 1523 1523 1523 1523 1523 1523 1523 1523 1523 1522 1522 1521 1521 1521 1520
1503 1504 1506 1508 1509 1511 1512 1512 1513 1514 1514 1514 1515 1515 1515 1515 1516 1516 1517 1518 1519 1519 1520 1520 1520 1520 1520 1521 1520 1521 1521 1520 1520 1520 1520 1520 1520 1520 1519 1519 1518 1518 1518
1499 1501 1503 1504 1506 1507 1508 1509 1510 1510 1511 1511 1511 1511 1511 1512 1512 1512 1513 1514 1515 1516 1516 1516 1516 1516 1517 1517 1517 1517 1517 1518 1517 1517 1517 1517 1517 1517 1517 1516 1516 1516 1515
1496 1497 1499 1501 1502 1504 1504 1505 1506 1507 1507 1507 1507 1507 1507 1508 1508 1509 1509 1509 1510 1511 1512 1512 1512 1513 1513 1513 1513 1513 1514 1514 1514 1514 1514 1514 1514 1514 1513 1513 1513 1513 1513
1493 1494 1496 1497 1498 1500 1500 1501 1502 1502 1502 1503 1503 1503 1504 1504 1504 1505 1505 1506 1506 1507 1507 1508 1508 1508 1507 1508 1509 1510 1510 1510 1510 1511 1511 1511 1511 1510 1510 1510 1510 1510 1510
1490 1491 1492 1493 1494 1495 1496 1497 1497 1498 1498 1498 1498 1499 1499 1500 1500 1500 1501 1501 1502 1502 1503 1504 1504 1503 1503 1504 1505 1505 1505 1506 1506 1506 1507 1507 1507 1507 1507 1507 1507 1508 1508
1487 1488 1489 1490 1491 1491 1492 1493 1493 1493 1494 1494 1494 1494 1494 1495 1496 1496 1496 1496 1497 1497 1498 1498 1499 1499 1499 1500 1500 1500 1501 1502 1502 1503 1504 1504 1504 1504 1504 1504 1505 1505 1505
1483 1483 1485 1486 1487 1488 1488 1488 1489 1489 1489 1489 1489 1490 1490 1490 1491 1491 1492 1491 1491 1492 1493 1493 1494 1494 1494 1495 1495 1496 1496 1497 1497 1498 1499 1500 1500 1501 1501 1501 1502 1502 1503
1478 1480 1481 1482 1484 1484 1484 1485 1485 1485 1485 1485 1485 1485 1486 1486 1486 1486 1487 1486 1486 1486 1488 1488 1488 1488 1489 1489 1490 1490 1491 1492 1492 1493 1494 1495 1496 1497 1497 1498 1498 1499 1499